Flag for U.S.A. Weather past 2 weeks in Babylon, New York, U.S.A.

Now
40 °F

Light rain. Fog.


Feels Like: 34 °F
Forecast: 21 / 35 °F
Wind: 8 mph from West

Location: Republic Airport

Current Time: Mar 4, 2015 at 10:05:52 PM

Latest Report: Mar 4, 2015 at 8:53 PM


Visibility: 3 mi

Pressure: 29.89 "Hg

Humidity: 93%

Dew point: 38 °F

Location of BabylonLocation

Historic Weather in Babylon — Graph

°F

Babylon temperature yesterday

Maximum temperature yesterday: 35 °F (at 11:00 PM)
Minimum temperature yesterday: 16 °F (at 5:53 AM)
Average temperature yesterday: 27 °F

Past Weeks' High & Low Weather Summary

 TemperatureHumidityPressure
High43 °F (Mar 4, 1:53 PM)97% (Mar 3, 9:53 PM)30.81 "Hg (Mar 3, 9:53 PM)
Low2 °F (Feb 20, 5:53 AM)27% (Feb 23, 3:53 PM)29.70 "Hg (Feb 19, 2:53 AM)
Average24 °F62%30.18 "Hg
* Reported Feb 17 8:53 PM — Mar 4 8:53 PM, Babylon, Weather by CustomWeather, © 2015

Note: Actual official high and low records may vary slightly from our data, if they occured in-between our weather recording intervals... More about our weather records

Advertising

Babylon weather history for previous 24 hours

 ConditionsComfort  
Time TempWeatherWind HumidityBarometerVisibility
8:53 PM
Wed, Mar 4
40 °FLight rain. Fog.8 mph93%29.89 "Hg3 mi
7:53 PM40 °FFog.5 mph93%29.87 "Hg4 mi
6:53 PM40 °FFog.3 mph93%29.90 "Hg4 mi
5:53 PM40 °FFog.7 mph89%29.88 "Hg4 mi
4:53 PM40 °FFog.7 mph93%29.87 "Hg3 mi
3:53 PM41 °FLight rain. Fog.7 mph89%29.89 "Hg3 mi
2:53 PM41 °FLight rain. Fog.7 mph86%29.83 "Hg4 mi
1:53 PM43 °FPartly sunny.8 mph82%29.84 "Hg3 mi
12:53 PM42 °FMostly cloudy.10 mph82%29.85 "Hg3 mi
11:53 AM40 °FFog.7 mph89%29.86 "Hg2 mi
10:53 AM39 °FFog.9 mph89%29.88 "Hg2 mi
10:03 AM38 °FFog.6 mph93%29.87 "Hg2 mi
9:53 AM38 °FFog.7 mph90%29.86 "Hg2 mi
8:53 AM37 °FLight rain. Fog.8 mph89%29.86 "Hg2 mi
7:53 AM36 °FLight rain. Fog.9 mph92%29.83 "Hg3 mi
6:53 AM36 °FLight rain. Fog.7 mph89%29.80 "Hg3 mi
5:53 AM35 °FLight rain. Fog.6 mph92%29.79 "Hg5 mi
4:53 AM36 °FOvercast.8 mph89%29.78 "Hg7 mi
3:53 AM36 °FLow clouds.12 mph89%29.76 "Hg8 mi
2:53 AM36 °FLow clouds.14 mph89%29.77 "Hg8 mi
1:53 AM36 °FLow clouds.16 mph92%29.81 "Hg10 mi
12:53 AM36 °FMostly cloudy.14 mph89%29.80 "Hg10 mi
11:53 PM
Tue, Mar 3
35 °FMostly cloudy.12 mph96%29.83 "Hg8 mi
11:00 PM35 °FRain. Fog.7 mph96%29.89 "Hg4 mi
Weather by CustomWeather, © 2015

See weather overviewHow to use our weather pages